{"data":{"norad_id":64703,"epoch":"2026-05-25T04:30:33.441984Z","epoch_age_seconds":49086,"freshness":"FRESH","line1":"1 64703U 25142H   26145.18788706  .00002369  00000+0  20627-3 0  9996","line2":"2 64703  70.0001 121.3835 0003468 269.1527  90.9235 14.98335329 50927","mean_motion":14.98335329,"eccentricity":0.0003468,"inclination_deg":70.0001,"raan_deg":121.3835,"arg_perigee_deg":269.1527,"mean_anomaly_deg":90.9235,"bstar":0.00020627,"rev_number":5092,"period_min":96.106657310221,"perigee_km":569.62909032084,"apogee_km":574.44973267986,"semimajor_km":6950.1764115003,"source":"CELESTRAK","updated_at":"2026-05-25T13:38:20.512336Z"}}